Tracking 17842 objects as of 31-August-2016
HD Live streaming from Space Station
objects crossing your sky now

UNAMSAT

Track UNAMSAT now!
10-day predictions
UNAMSAT is classified as:


NORAD ID: 24305
Int'l Code: 1996-052B
Perigee: 970.2 km
Apogee: 1,016.2 km
Inclination: 82.9 °
Period: 104.8 minutes
Semi major axis: 7364 km
RCS: 0.174 m2 (medium)
Launch date: September 5, 1996
Source: Mexico (MEX)
Launch site: PLESETSK MISSILE AND SPACE COMPLEX (PKMTR)
Your satellite tracking list
Your tracking list is empty





NASA's NSSDC Master Catalog

Two Line Element Set (TLE):
1 24305U 96052B   16242.90946114 +.00000024 +00000-0 +87260-5 0  9999
2 24305 082.9365 208.0595 0031247 131.6064 228.7776 13.73771522001521
Source of the keplerian elements: AFSPC

N2YO: 486